OBJECT C, 42827

Orbit data source: Space-Track

You're viewing an Uncataloged Satellite

Recently launched and/or uncataloged satellites may have evolving metadata. Metadata may include but not limited to: Owner, Maufacturer, Bus, Motor, and Mission.

OBJECT C, 42827 is a satellite in SSO that was launched on Fri, 14 Jul 2017 UTC via a SOYUZ-2-1A launch vehicle from the Tyuratam Missile And Space Complex (TTMTR). Unknown objects in Earth's orbit typically refer to objects detected orbiting the Earth but have not yet been identified or cataloged. These objects could be anything from previously untracked satellites, spent rocket stages, debris from satellite collisions, or even natural meteoroids temporarily captured by Earth's gravity.

Loading next visibility...
Identifier
42827, 2017-042C
Orbit
SSO
Country
Flag of TBDTBD
Related business
None
Manufacturer
Unknown
Mission
Non-operational Amateur Technology
Bus & Motor
Unknown
Mass
Unknown
Launch date (UTC)
2017-07-14 (9 years ago)
Launch vehicle
SOYUZ-2-1A
Launch site
Tyuratam Missile And Space Complex (TTMTR)
Object type
Unknown
Shape & HBR
Box, 0.1 m
Radar Cross Section
0.035 m², Small (<0.1 m²)

Expand to show TLE details & history
Last TLE update: 14 hours ago

TLE from 14 hours ago
0 OBJECT C
1 42827U 17042C   26127.97813012  .00011177  00000-0  45136-3 0  9995
2 42827  97.4103 303.8555 0008617 210.0968 149.9776 15.24906424481706
Epoch: 2026-05-07T23:28Z
TLE epoch observation values (Epoch: 2026-05-07T23:28:30.442Z)
Latitude
0.00002°
Longitude
85.91214°
Altitude
499.291 km
Speed
7.612 km/s
True Right ascension
20h 15m 25s
True Declination
0° 00' 00"
Sunlit
Object was in daylight at epoch
Visualization orbit readout
Latitude
Unknown
Longitude
Unknown
Altitude
Unknown
Speed
Unknown
Apparent Right ascension
Unknown
Apparent Declination
Unknown
Sunlit
N/A
Visualization observer readout
Local Sidereal Time
21:56:49
Azimuth
Unknown
Elevation
Unknown
Doppler factor
Unknown
Orbital elements
Apogee altitude
493.942 km
Perigee altitude
482.109 km
Semi-major axis
6,866.163 km
Eccentricity
0.00086
Inclination
97.4103°
RAAN
303.8555°
Arg. of periapsis
210.0968°
True anomaly
150.02696°
Mean anomaly
149.9776°
Eccentric anomaly
150.00228°
Mean motion
3.8148 °/min
Orbital period
94.37 mins
BSTAR
0.00045136
Loading maneuver chart data...
Computing Atmospheric mass density...
Loading historical data...
Loading historical data...
Loading historical data...
Loading historical data...
Loading historical data...
Loading historical data...
Loading historical data...

Documentation

Showing up to 5 results
|